McMinnville, OR

12:10 PM PST on December 05, 2019 (GMT -0800)
McMinnville Municipal

Weather History for KMMV - November, 2019

Change the Weather History Date:

Sunday, November 17, 2019

  Actual Average Record
Temperature  
Mean Temperature 50 °F 45 °F  
Max Temperature 57 °F 52 °F 64 °F (1920)
Min Temperature 43 °F 38 °F 20 °F (1916)
Degree Days  
Heating Degree Days 15 20  
Month to date heating degree days 310 317  
Since 1 July heating degree days 922 940  
Cooling Degree Days 0 0  
Month to date cooling degree days 0 0  
Year to date cooling degree days 282 215  
Moisture  
Dew Point 49 °F    
Average Humidity 92    
Maximum Humidity 100    
Minimum Humidity 83    
Precipitation  
Precipitation 0.09 in 0.22 in 1.60 in (1920)
Month to date precipitation 0.15 3.47  
Year to date precipitation 22.68 30.33  
Sea Level Pressure  
Sea Level Pressure 30.19 in    
Wind  
Wind Speed 3 mph (ENE)    
Max Wind Speed 10 mph    
Max Gust Speed 12 mph    
Visibility 4 miles    
Events Fog , Rain    
T = Trace of Precipitation, MM = Missing Value Source: NWS Daily Summary

Daily Weather History Graph

Daily Weather History Graph

Search for Another Location

Airport or City:

Astronomy

Nov. 17, 2019 Rise Set
Actual Time 7:13 AM PST 4:41 PM PST
Civil Twilight 6:41 AM PST 5:13 PM PST
Nautical Twilight 6:05 AM PST 5:49 PM PST
Astronomical Twilight 5:30 AM PST 6:23 PM PST
Moon 9:20 PM PST (11/17) 12:07 PM PST (11/17)
Length of Visible Light 10h 32m
Length of Day
9h 27m
Waning Gibbous, 72% of the Moon is Illuminated
Nov 17
Waning Gibbous
Nov 19
Last Quarter
Nov 26
New
Dec 3
First Quarter
Dec 11
Full

Hourly Weather History & Observations

Time (PST) Temp. Windchill Dew Point Humidity Pressure Visibility Wind Dir Wind Speed Gust Speed Precip Events Conditions
12:53 AM 48.0 °F - 46.9 °F 96% 30.21 in 4.0 mi Calm Calm - N/A   Overcast
1:53 AM 46.9 °F - 45.0 °F 93% 30.20 in 3.0 mi Calm Calm - N/A   Mostly Cloudy
2:53 AM 46.0 °F - 45.0 °F 96% 30.19 in 2.0 mi Calm Calm - N/A   Clear
2:56 AM 46.0 °F - 45.0 °F 96% 30.19 in 0.8 mi Calm Calm - N/A   Mist
3:02 AM 45.0 °F - 44.1 °F 97% 30.19 in 0.2 mi Calm Calm - N/A Fog Fog
3:21 AM 43.0 °F 40.3 °F 42.1 °F 97% 30.18 in 0.2 mi South 4.6 mph - N/A Fog Fog
3:40 AM 44.1 °F - 43.0 °F 96% 30.17 in 0.2 mi Calm Calm - N/A Fog Fog
3:53 AM 44.1 °F - 43.0 °F 96% 30.17 in 0.2 mi Calm Calm - N/A Fog Fog
4:16 AM 45.0 °F - 44.1 °F 97% 30.17 in 0.8 mi Calm Calm - N/A   Overcast
4:20 AM 45.0 °F - 45.0 °F 100% 30.17 in 1.0 mi Calm Calm - N/A   Overcast
4:53 AM 46.0 °F 44.8 °F 44.1 °F 93% 30.17 in 0.8 mi East 3.5 mph - N/A   Overcast
5:06 AM 46.0 °F - 45.0 °F 96% 30.16 in 1.5 mi Calm Calm - N/A   Overcast
5:53 AM 46.9 °F - 46.0 °F 97% 30.19 in 3.0 mi West 5.8 mph - N/A   Overcast
6:23 AM 48.0 °F - 46.9 °F 96% 30.17 in 3.0 mi SE 10.4 mph - N/A   Mostly Cloudy
6:53 AM 46.9 °F - 46.9 °F 100% 30.19 in 4.0 mi West 5.8 mph - N/A   Mostly Cloudy
7:04 AM 48.9 °F - 46.9 °F 93% 30.17 in 6.0 mi Calm Calm - N/A   Mostly Cloudy
7:35 AM 46.9 °F - 46.0 °F 97% 30.19 in 3.0 mi East 4.6 mph - N/A   Overcast
7:44 AM 46.9 °F - 46.0 °F 97% 30.18 in 2.5 mi ESE 6.9 mph - N/A   Overcast
7:53 AM 48.0 °F - 46.0 °F 93% 30.18 in 2.5 mi ESE 5.8 mph - N/A   Overcast
8:01 AM 48.0 °F - 46.9 °F 96% 30.19 in 4.0 mi SE 3.5 mph - N/A   Overcast
8:53 AM 50.0 °F - 48.0 °F 93% 30.20 in 8.0 mi SE 4.6 mph - N/A   Overcast
9:53 AM 51.1 °F - 48.0 °F 89% 30.20 in 10.0 mi SSE 6.9 mph - N/A   Overcast
10:53 AM 53.1 °F - 48.0 °F 83% 30.22 in 10.0 mi WNW 3.5 mph - N/A   Overcast
11:53 AM 53.1 °F - 50.0 °F 89% 30.21 in 6.0 mi Calm Calm - 0.00 in Rain Light Rain
12:09 PM 53.1 °F - 50.0 °F 89% 30.21 in 2.5 mi Calm Calm - 0.03 in Rain Light Rain
12:18 PM 53.1 °F - 51.1 °F 93% 30.21 in 1.8 mi Calm Calm - 0.04 in Rain Light Rain
12:25 PM 53.1 °F - 51.1 °F 93% 30.20 in 2.0 mi Calm Calm - 0.06 in Rain Rain
12:45 PM 53.1 °F - 51.1 °F 93% 30.20 in 1.8 mi Calm Calm - 0.09 in Rain Light Rain
12:47 PM 53.6 °F - 51.8 °F 94% 30.20 in 2.0 mi Calm Calm - 0.09 in Rain Light Rain
12:53 PM 54.0 °F - 52.0 °F 93% 30.20 in 4.0 mi Calm Calm - 0.09 in Rain Light Rain
1:32 PM 55.0 °F - 52.0 °F 89% 30.20 in 10.0 mi Calm Calm - 0.00 in   Overcast
1:53 PM 55.0 °F - 53.1 °F 93% 30.20 in 10.0 mi Calm Calm - 0.00 in   Overcast
2:53 PM 55.9 °F - 53.1 °F 90% 30.20 in 10.0 mi ESE 4.6 mph - N/A   Mostly Cloudy
3:19 PM 55.9 °F - 53.1 °F 90% 30.19 in 10.0 mi SE 6.9 mph - N/A   Overcast
3:53 PM 57.0 °F - 53.1 °F 87% 30.20 in 10.0 mi East 4.6 mph - N/A   Overcast
4:28 PM 55.9 °F - 53.1 °F 90% 30.20 in 10.0 mi ENE 3.5 mph - N/A   Overcast
4:53 PM 55.9 °F - 53.1 °F 90% 30.19 in 10.0 mi Calm Calm - N/A   Overcast
5:53 PM 55.0 °F - 53.1 °F 93% 30.20 in 10.0 mi NNW 6.9 mph - N/A   Overcast
6:53 PM 54.0 °F - 52.0 °F 93% 30.21 in 8.0 mi NNW 4.6 mph - N/A   Overcast
7:53 PM 54.0 °F - 52.0 °F 93% 30.20 in 7.0 mi NNW 4.6 mph - N/A   Overcast
8:53 PM 54.0 °F - 52.0 °F 93% 30.21 in 5.0 mi NNW 4.6 mph - N/A   Overcast
9:02 PM 54.0 °F - 52.0 °F 93% 30.20 in 5.0 mi North 5.8 mph - N/A   Overcast
9:53 PM 54.0 °F - 52.0 °F 93% 30.19 in 3.0 mi Calm Calm - N/A   Overcast
10:03 PM 53.1 °F - 52.0 °F 96% 30.19 in 2.0 mi Calm Calm - N/A   Overcast
10:06 PM 53.1 °F - 52.0 °F 96% 30.19 in 1.8 mi Calm Calm - N/A   Overcast
10:26 PM 53.1 °F - 52.0 °F 96% 30.18 in 1.5 mi NNE 3.5 mph - N/A   Overcast
10:41 PM 53.1 °F - 52.0 °F 96% 30.18 in 1.8 mi Calm Calm - N/A   Overcast
10:53 PM 53.1 °F - 52.0 °F 96% 30.17 in 1.5 mi Calm Calm - N/A   Overcast
11:08 PM 53.1 °F - 52.0 °F 96% 30.17 in 2.5 mi Calm Calm - N/A   Overcast
11:53 PM 53.1 °F - 52.0 °F 96% 30.16 in 3.0 mi NNW 3.5 mph - N/A   Overcast